CZ-4C R/B, 40112

Orbit data source: Space-Track

CZ-4C R/B, 40112 is space debris in LEO originally from a launch on Sat, 09 Aug 2014 UTC launched from the Jiuquan Satellite Launch Center, China (JSC). Debris objects in space refer to the collection of defunct objects orbiting the Earth. Examples of debris include non-operational satellites, rocket bodies, and fragments generated from explosions, collisions, or faulty payload assembly.

Loading next visibility...
Identifier
40112, 2014-047D
Orbit
LEO
Country
Flag of CNCN / PRC
Related business
Manufacturer
SAST
Mission
Spacecraft
Bus & Motor
CZ-4 STAGE 3, Unknown motor
Mass
~1,000 kg wet, ~1,000 kg dry
Launch date (UTC)
2014-08-09 (12 years ago)
Launch vehicle
Unknown
Launch site
Jiuquan Satellite Launch Center, China (JSC)
Object type
Payload
Rocket body
Debris
Shape & HBR
Cyl, 1.4 m
Radar Cross Section
20.385 m², Large (>1 m²)

Expand to show TLE details & history
Last TLE update: 22 hours ago

TLE from 22 hours ago
0 CZ-4C R/B
1 40112U 14047D   26067.70043991  .00000120  00000-0  90458-4 0  9991
2 40112  63.4118 173.9294 0551279   0.1724 359.9408 13.70349142579037
Epoch: 2026-03-08T16:48Z
TLE epoch observation values (Epoch: 2026-03-08T16:48:38.008Z)
Latitude
0.00007°
Longitude
115.3671°
Altitude
593.428 km
Speed
7.769 km/s
True Right ascension
11h 35m 43s
True Declination
0° 00' 00"
Sunlit
Object was in full shadow at epoch
Visualization orbit readout
Latitude
Unknown
Longitude
Unknown
Altitude
Unknown
Speed
Unknown
Apparent Right ascension
Unknown
Apparent Declination
Unknown
Sunlit
N/A
Visualization observer readout
Local Sidereal Time
19:24:30
Azimuth
Unknown
Elevation
Unknown
Doppler factor
Unknown
Orbital elements
Apogee altitude
1,403.709 km
Perigee altitude
590.543 km
Semi-major axis
7,375.263 km
Eccentricity
0.05513
Inclination
63.4118°
RAAN
173.9294°
Arg. of periapsis
0.1724°
True anomaly
359.93379°
Mean anomaly
359.9408°
Eccentric anomaly
359.93735°
Mean motion
3.42671 °/min
Orbital period
105.06 mins
BSTAR
0.000090458
Loading maneuver chart data...
Computing Atmospheric mass density...
Loading historical data...
Loading historical data...
Loading historical data...
Loading historical data...
Loading historical data...
Loading historical data...
Loading historical data...

Documentation

Showing up to 5 results
|